Weather in Nikita

Russia / Republic of Crimea     44°30′40″N   34°14′25″E
temp.,
°C
wind,
m/s
gust,
m/s
humid.,
%
clouds,
%
prec.,
mm/h
press.,
hPa
HPBL,
m
27 february, sat
sat2700:00+8w67740 0.0 1024108
03:00+8w68740 0.0 1022136
06:00+8w68710 0.0 1021125
09:00+9w68680 0.0 1020118
12:00+11wsw68620 0.0 1019269
15:00+11w68610 0.0 1018352
18:00+10w56690 0.0 1017100
21:00+8nnw447933 0.0 101866
28 february, sun
sun2800:00+8ne3486100 0.1 1018143
03:00+7nw3486100 0.4 1019307
06:00+5nnw5676100 0.1 1020323
09:00+4nw566987 0.1 1021407
12:00+5w136076 0.1 1022674
15:00+4sse238159 0.4 1022439
18:00+4nw237445 0.4 1022564
21:00+4nnw337341 0.8 1024516
1 march, mon
mon100:00+3nw447426 0.1 1024248
03:00+3nw447635 0.1 1024281
06:00+2nnw327199 0.0 1025234
09:00+3ne227082 0.1 1026455
12:00+3ese338761 0.4 1026370
15:00+3ese449078 1.3 1027410
18:00+3e4593100 1.8 1027378
21:00+2nne2384100 2.6 1029377
2 march, tue
tue200:00+2n227150 0.0 1030312
03:00+2nnw337044 0.1 1030215
06:00+1nnw326855 0.0 1030218
09:00+2nw226537 0.0 1031279
12:00+5sw336438 0.0 1031889
15:00+5sw446226 0.0 1029679
18:00+4nw446721 0.0 1028411
21:00+3nw567248 0.0 1028232
3 march, wed
wed300:00+4nw447544 0.0 1027197
03:00+5wnw237838 0.0 1027183
06:00+5nnw337721 0.0 1027150
09:00+6n226911 0.0 1028146
12:00+7sse23700 0.0 1028389
15:00+8ssw24710 0.0 1027432
18:00+7nw12819 0.0 102744
21:00+6nnw337334 0.0 102842